When you browse on this site, cookies collect data to enhance your experience and personalize the content and advertising you see.
Visit our Privacy Policy to learn more. By continuing to use the site, you agree to this use of cookies and data.
  • In Portugal
  • List of Countries
  • For 7 days
  • Water Temperature
  • Satellite Maps
  • Weather Map
  • Weather Widgets
  • user-avatar
    Login

    Hourly Weather Sergincy

    Today, 26 April, Friday

    Time Temperature Precipitation Wind Pressure Humidity
    00:00 0°C° 0 mm 1 mps 748 mmHg 82%
    01:00 0°C° 0 mm 1 mps 749 mmHg 83%
    02:00 0°C° 0 mm 1 mps 748 mmHg 82%
    03:00 0°C° 0 mm 1 mps 748 mmHg 82%
    04:00 -1°C° 0 mm 1 mps 748 mmHg 84%
    05:00 +1°C° 0 mm 1 mps 747 mmHg 79%
    06:00 +1°C° 0 mm 2 mps 747 mmHg 74%
    07:00 +2°C° 0 mm 2 mps 747 mmHg 69%
    08:00 +2°C° 0.2 mm 3 mps 747 mmHg 65%
    09:00 +4°C° 0.2 mm 3 mps 746 mmHg 61%
    10:00 +5°C° 0.2 mm 4 mps 746 mmHg 57%
    11:00 +6°C° 0.3 mm 4 mps 746 mmHg 55%
    12:00 +6°C° 0.3 mm 4 mps 746 mmHg 54%
    13:00 +6°C° 0.3 mm 4 mps 745 mmHg 52%
    14:00 +6°C° 0.1 mm 4 mps 745 mmHg 51%
    15:00 +6°C° 0.1 mm 4 mps 745 mmHg 51%
    16:00 +6°C° 0.1 mm 5 mps 745 mmHg 50%
    17:00 +5°C° 0 mm 4 mps 745 mmHg 53%
    18:00 +3°C° 0 mm 4 mps 745 mmHg 57%
    19:00 +2°C° 0 mm 3 mps 745 mmHg 60%
    20:00 +2°C° 0 mm 2 mps 746 mmHg 66%
    21:00 +1°C° 0 mm 2 mps 746 mmHg 71%
    22:00 -2°C° 0 mm 2 mps 746 mmHg 77%
    23:00 0°C° 0 mm 1 mps 746 mmHg 78%

    Tomorrow, 27 April, Saturday

    Time Temperature Precipitation Wind Pressure Humidity
    00:00 -1°C° 0 mm 1 mps 746 mmHg 80%
    01:00 -1°C° 0 mm 1 mps 746 mmHg 82%
    02:00 -1°C° 0 mm 1 mps 746 mmHg 81%
    03:00 -1°C° 0 mm 1 mps 746 mmHg 81%
    04:00 -1°C° 0 mm 1 mps 746 mmHg 81%
    05:00 -1°C° 0 mm 1 mps 746 mmHg 77%
    06:00 0°C° 0 mm 1 mps 746 mmHg 72%
    07:00 -1°C° 0 mm 2 mps 745 mmHg 68%
    08:00 +1°C° 0.4 mm 2 mps 745 mmHg 69%
    09:00 0°C° 0.4 mm 3 mps 744 mmHg 71%
    10:00 0°C° 0.4 mm 4 mps 743 mmHg 72%
    11:00 +1°C° 1.1 mm 4 mps 742 mmHg 72%
    12:00 +4°C° 1.1 mm 4 mps 741 mmHg 71%
    13:00 +5°C° 1.1 mm 4 mps 740 mmHg 71%
    14:00 +6°C° 0.4 mm 4 mps 739 mmHg 68%
    15:00 +7°C° 0.4 mm 5 mps 739 mmHg 66%
    16:00 +9°C° 0.4 mm 5 mps 738 mmHg 63%
    17:00 +8°C° 0.3 mm 4 mps 738 mmHg 68%
    18:00 +7°C° 0.3 mm 4 mps 737 mmHg 73%
    19:00 +7°C° 0.3 mm 3 mps 737 mmHg 78%
    20:00 +5°C° 0.9 mm 3 mps 737 mmHg 84%
    21:00 +4°C° 0.9 mm 3 mps 737 mmHg 90%
    22:00 +4°C° 0.9 mm 2 mps 737 mmHg 96%
    23:00 +3°C° 0.2 mm 2 mps 737 mmHg 95%

    Day after tomorrow, 28 April, Sunday

    Time Temperature Precipitation Wind Pressure Humidity
    00:00 +2°C° 0.2 mm 2 mps 737 mmHg 94%
    01:00 -1°C° 0.2 mm 3 mps 736 mmHg 92%
    02:00 -1°C° 0 mm 3 mps 736 mmHg 92%
    03:00 -2°C° 0 mm 2 mps 736 mmHg 91%
    04:00 -2°C° 0 mm 2 mps 737 mmHg 91%
    05:00 -2°C° 0.1 mm 3 mps 737 mmHg 90%
    06:00 -2°C° 0.1 mm 3 mps 737 mmHg 89%
    07:00 -3°C° 0.1 mm 4 mps 737 mmHg 88%
    08:00 -2°C° 0.1 mm 4 mps 737 mmHg 85%
    09:00 -1°C° 0.1 mm 4 mps 738 mmHg 82%
    10:00 0°C° 0.1 mm 4 mps 739 mmHg 79%
    11:00 0°C° 0.1 mm 5 mps 739 mmHg 75%
    12:00 +1°C° 0.1 mm 5 mps 739 mmHg 71%
    13:00 +2°C° 0.1 mm 5 mps 740 mmHg 68%
    14:00 +2°C° 0.2 mm 5 mps 740 mmHg 65%
    15:00 +3°C° 0.2 mm 4 mps 740 mmHg 63%
    16:00 +3°C° 0.2 mm 4 mps 741 mmHg 61%
    17:00 +1°C° 0.2 mm 4 mps 741 mmHg 65%
    18:00 +1°C° 0.2 mm 3 mps 742 mmHg 70%
    19:00 0°C° 0.2 mm 3 mps 742 mmHg 74%
    20:00 0°C° 0.1 mm 3 mps 743 mmHg 77%
    21:00 -1°C° 0.1 mm 3 mps 743 mmHg 80%
    22:00 -2°C° 0.1 mm 3 mps 744 mmHg 83%
    23:00 -2°C° 0 mm 2 mps 744 mmHg 86%

    29 April, Monday

    Time Temperature Precipitation Wind Pressure Humidity
    00:00 -3°C° 0 mm 2 mps 744 mmHg 89%
    01:00 -4°C° 0 mm 2 mps 744 mmHg 91%
    02:00 -4°C° 0 mm 2 mps 745 mmHg 91%
    03:00 -5°C° 0 mm 2 mps 745 mmHg 90%
    04:00 -5°C° 0 mm 2 mps 746 mmHg 90%
    05:00 -5°C° 0.1 mm 2 mps 746 mmHg 86%
    06:00 -4°C° 0.1 mm 2 mps 746 mmHg 83%
    07:00 -4°C° 0.1 mm 3 mps 746 mmHg 80%
    08:00 -4°C° 0 mm 3 mps 747 mmHg 74%
    09:00 -2°C° 0 mm 3 mps 747 mmHg 67%
    10:00 -1°C° 0 mm 3 mps 747 mmHg 60%
    11:00 0°C° 0 mm 3 mps 747 mmHg 57%
    12:00 0°C° 0 mm 3 mps 747 mmHg 54%
    13:00 +1°C° 0 mm 3 mps 747 mmHg 51%
    14:00 +1°C° 0 mm 3 mps 747 mmHg 51%
    15:00 +1°C° 0 mm 3 mps 747 mmHg 51%
    16:00 +1°C° 0 mm 3 mps 748 mmHg 51%
    17:00 0°C° 0 mm 3 mps 748 mmHg 55%
    18:00 -1°C° 0 mm 3 mps 748 mmHg 59%
    19:00 -1°C° 0 mm 2 mps 748 mmHg 63%
    20:00 -2°C° 0 mm 2 mps 748 mmHg 69%
    21:00 -3°C° 0 mm 2 mps 748 mmHg 75%
    22:00 -3°C° 0 mm 1 mps 748 mmHg 81%
    23:00 -3°C° 0 mm 1 mps 748 mmHg 82%

    30 April, Tuesday

    Time Temperature Precipitation Wind Pressure Humidity
    00:00 -3°C° 0 mm 1 mps 748 mmHg 84%
    01:00 -4°C° 0 mm 1 mps 748 mmHg 85%
    02:00 -4°C° 0 mm 1 mps 748 mmHg 85%
    03:00 -4°C° 0 mm 1 mps 748 mmHg 85%
    04:00 -4°C° 0 mm 1 mps 748 mmHg 84%
    05:00 -5°C° 0 mm 2 mps 748 mmHg 78%
    06:00 -4°C° 0 mm 2 mps 748 mmHg 71%
    07:00 -3°C° 0 mm 2 mps 748 mmHg 65%
    08:00 -2°C° 0 mm 2 mps 747 mmHg 59%
    09:00 -1°C° 0 mm 3 mps 747 mmHg 53%
    10:00 0°C° 0 mm 3 mps 747 mmHg 48%
    11:00 +1°C° 0 mm 3 mps 747 mmHg 46%
    12:00 +1°C° 0 mm 3 mps 746 mmHg 45%
    13:00 +2°C° 0 mm 3 mps 746 mmHg 44%
    14:00 +1°C° 0 mm 4 mps 746 mmHg 44%
    15:00 +1°C° 0 mm 4 mps 746 mmHg 45%
    16:00 +1°C° 0 mm 4 mps 745 mmHg 45%
    17:00 +2°C° 0 mm 3 mps 745 mmHg 50%
    18:00 +1°C° 0 mm 3 mps 745 mmHg 54%
    19:00 +2°C° 0 mm 2 mps 744 mmHg 58%
    20:00 0°C° 0 mm 3 mps 744 mmHg 62%
    21:00 -1°C° 0 mm 3 mps 744 mmHg 65%
    22:00 -2°C° 0 mm 3 mps 744 mmHg 68%
    23:00 -1°C° 0.1 mm 3 mps 743 mmHg 69%

    1 May, Wednesday

    Time Temperature Precipitation Wind Pressure Humidity
    00:00 -1°C° 0.1 mm 3 mps 743 mmHg 70%
    01:00 -2°C° 0.1 mm 4 mps 743 mmHg 71%
    02:00 -2°C° 0.1 mm 4 mps 742 mmHg 75%
    03:00 -2°C° 0.1 mm 4 mps 742 mmHg 80%
    04:00 -2°C° 0.1 mm 3 mps 742 mmHg 85%
    05:00 -1°C° 0 mm 3 mps 743 mmHg 81%
    06:00 -1°C° 0 mm 3 mps 743 mmHg 78%
    07:00 0°C° 0 mm 3 mps 743 mmHg 74%
    08:00 -1°C° 0 mm 4 mps 743 mmHg 67%
    09:00 0°C° 0 mm 4 mps 743 mmHg 60%
    10:00 +1°C° 0 mm 4 mps 744 mmHg 54%
    11:00 +3°C° 0 mm 4 mps 744 mmHg 52%
    12:00 +3°C° 0 mm 3 mps 744 mmHg 51%
    13:00 +4°C° 0 mm 3 mps 744 mmHg 50%
    14:00 +4°C° 0 mm 3 mps 744 mmHg 49%
    15:00 +4°C° 0 mm 3 mps 744 mmHg 49%
    16:00 +6°C° 0 mm 2 mps 744 mmHg 48%
    17:00 +5°C° 0 mm 2 mps 744 mmHg 53%
    18:00 +5°C° 0 mm 1 mps 744 mmHg 57%
    19:00 +4°C° 0 mm 0 mps 744 mmHg 62%
    20:00 +3°C° 0 mm 0 mps 744 mmHg 65%
    21:00 +2°C° 0 mm 0 mps 744 mmHg 69%
    22:00 0°C° 0 mm 0 mps 745 mmHg 73%
    23:00 0°C° 0 mm 0 mps 745 mmHg 74%
    Show more